User: anonymous   Login
Location: Unspecified
(0.0000°N, 0.0000°E)
Time: 11:03:34
(UTC+00:00)
Language:

DNEPR OBJECT AB - Orbit

View from above orbital plane
View from above orbital plane
View from above satellite
View from above satellite

Ground track
Ground track

The orbit data is extracted from the following two-line orbital elements,

1 39441U 13066AB  17351.05008679  .00000172  00000-0  31493-4 0  9993
2 39441  97.6120  10.4526 0083416  71.6396 289.3864 14.74710788218930
Epoch (UTC): 17 December 2017 01:12:07
Eccentricity: 0.0083416
inclination: 97.6120°
perigee height: 587 km
apogee height: 704 km
right ascension of ascending node: 10.4526°
argument of perigee: 71.6396°
revolutions per day: 14.74710788
mean anomaly at epoch: 289.3864°
orbit number at epoch: 21893

The dashed part of the orbit path shows where the satellite is in the earth's shadow,  

DLR